Regional Weather Roundup
Issued by NWS

Home | Current Version | Previous Version | Text Only | Print | Product List | Glossary Off
Versions: 1 2 3 4 5 6 7 8 9 10 11 12 13 14 15 16 17 18 19 20 21 22 23 24 25 26 27 28 29 30 31 32 33 34 35 36 37 38 39 40 41 42 43 44 45 46 47 48 49 50

000
ASUS43 KLOT 280700
RWRIL

ILLINOIS REGIONAL WEATHER ROUNDUP
NATIONAL WEATHER SERVICE CHICAGO/ROMEOVILLE IL
200 AM CDT THU MAY 28 2015

NOTE: "FAIR" INDICATES FEW OR NO CLOUDS BELOW 12,000 FEET WITH NO
SIGNIFICANT WEATHER AND/OR OBSTRUCTIONS TO VISIBILITY.

* THESE STATIONS ARE NOT UNDER NWS QUALITY CONTROL. THEY ALSO MAY NOT
  REPORT WEATHER SUCH AS PRECIPITATION OR FOG.

ILZ001-002-007-009-015-016-024-280800-
NORTHWEST ILLINOIS

CITY           SKY/WX    TMP DP  RH WIND       PRES   REMARKS
MOLINE         CLEAR     60  55  83 CALM      30.14S
STERLING*      CLEAR     57  55  94 CALM      30.16S
$$

ILZ003-004-008-010-011-017-018-280800-
NORTH CENTRAL ILLINOIS

CITY           SKY/WX    TMP DP  RH WIND       PRES   REMARKS
ROCKFORD       CLEAR     60  55  83 S3        30.17R
FREEPORT*      CLEAR     63  56  79 S8        30.17R
$$

ILZ005-006-012>014-019>023-280800-
NORTHEAST ILLINOIS

CITY           SKY/WX    TMP DP  RH WIND       PRES   REMARKS
CHICAGO-OHARE  PTCLDY    58  54  86 CALM      30.16R
CHICAGO-MIDWAY PTCLDY    63  56  78 CALM      30.16R
AURORA         CLEAR     57  53  86 CALM      30.17R
WAUKEGAN       CLEAR     59  55  87 SW5       30.14R
DUPAGE AIRPORT CLEAR     57  54  89 CALM      30.16R
WHEELING       CLEAR     57  53  86 CALM      30.17R
NORTHERLY ISL    N/A     63  54  72 SW7         N/A
$$

LMZ740>746-280800-
SOUTHERN LAKE MICHIGAN

STATION/POSITION SKY/WX   TEMP    WIND        PRES    VSBY  WAVE
                          AIR SEA DIR/SP/G                  HT/PER
                          (F)     (DEG/KT/KT) (MB)    (MI)  (FT/S)
SOUTHERN BUOY              43 38  210/  8/ 10 1021.3R         0
HARRISON CRIB              64     190/ 10/ 10   N/A
BURNHAM HARBOR             62     190/  4       N/A
CALUMET HARBOR             62     180/  2/  3   N/A
BURNS HARBOR               60     180/  4/  4 1021.7R
MICHIGAN CITY              59     130/  6/  7   N/A
MICHIGAN CITY 6N           55 53  200/  4/  6   N/A           0
ST. JOSEPH                 56 56  200/  4/  4   N/A           0
$$

ILZ025>027-034>036-040-047-049-050-058-095>099-280800-
WEST-CENTRAL ILLINOIS

CITY           SKY/WX    TMP DP  RH WIND       PRES   REMARKS
QUINCY         CLEAR     65  55  70 SE5       30.15S
MACOMB*        PTCLDY    59  58  96 CALM      30.18S
$$

ILZ028>032-037-038-041>044-048-051>054-059>061-280800-
CENTRAL ILLINOIS

CITY           SKY/WX    TMP DP  RH WIND       PRES   REMARKS
DECATUR        CLEAR     57  55  93 N8        30.17R
PEORIA         PTCLDY    62  57  83 SW3       30.18R
SPRINGFIELD    CLEAR     60  57  89 CALM      30.17R
TAYLORVILLE    NOT AVBL
$$

ILZ033-039-045-046-055>057-062-063-280800-
EAST-CENTRAL ILLINOIS

CITY           SKY/WX    TMP DP  RH WIND       PRES   REMARKS
CHAMPAIGN      PTCLDY    59  53  80 NE7       30.17R
$$

ILZ079-100>102-280800-
SOUTHWEST ILLINOIS

CITY           SKY/WX    TMP DP  RH WIND       PRES   REMARKS
BELLEVILLE     PTCLDY    62  61  99 CALM      30.14S
CAHOKIA*       MOCLDY    62  59  90 CALM      30.14S
SPARTA*        MOCLDY    65  63  94 CALM      30.15S
$$

ILZ064>066-069>071-074>076-080>082-084>086-088>090-092>094-280800-
SOUTH-CENTRAL ILLINOIS

CITY           SKY/WX    TMP DP  RH WIND       PRES   REMARKS
CARBONDALE     CLOUDY    70  67  90 CALM      30.15S
MT. VERNON     MOCLDY    64  61  88 SW3       30.16S
SALEM*         PTCLDY    65  60  85 CALM      30.16R
$$

ILZ067-068-072-073-078-083-087-091-280800-
SOUTHEAST ILLINOIS

CITY           SKY/WX    TMP DP  RH WIND       PRES   REMARKS
LAWRENCEVILLE  PTCLDY    64  62  93 CALM      30.15S
ROBINSON*      PTCLDY    63  59  87 W3        30.16S
$$

ABBREVIATIONS USED IN REMARKS
   TC - TEMPERATURE IN CELSIUS
  WCI - WIND CHILL INDEX
   HX - HEAT INDEX
  VSB - VISIBILITY
$$



USA.gov is the U.S. government's official web portal to all federal, state and local government web resources and services.